#timestamp,LO_Frequency,Hit,StdDev 
1600161155.2,286046967.4,P
1600161175.1,286046965.2,P
1600161176.0,286046965.2,P
1600161195.8,286046965.7,Y
1600161215.6,286046998.6,P
1600161235.5,286046999.6,N
1600161255.3,286046997.0,N
1600161275.1,286046997.1,N
1600161295.9,286046997.7,N
1600161315.7,286046995.1,N
1600161335.6,286046995.6,N
1600161355.4,286046993.7,N
1600161375.2,286046994.0,N
1600161395.1,286046991.8,N
1600161396.0,286046991.8,N
1600161415.8,286046991.9,N
1600161435.6,286046990.2,N
1600161455.5,286046990.1,N
1600161475.3,286046990.3,N
1600161495.2,286046993.1,N
1600161515.9,286046990.9,N
1600161535.7,286046988.9,N
1600161555.6,286046989.2,N
1600161575.4,286046986.9,N
1600161595.2,286046987.6,N
1600161615.1,286046988.0,N
1600161616.0,286046988.0,N
1600161635.8,286046985.7,N
1600161655.7,286046985.5,N
1600161675.5,286046986.5,N
1600161695.3,286046984.1,N
1600161715.2,286046984.8,N
1600161735.0,286046982.2,N
1600161735.9,286046982.2,N
1600161755.8,286046982.8,Y
1600161775.6,286046993.2,P
1600161795.4,286046991.1,P
1600161815.3,286046989.1,P
1600161835.1,286046986.9,Y
1600161855.8,286046997.5,P
1600161875.7,286046997.6,N
1600161895.5,286046995.0,N
1600161915.4,286046995.8,N
1600161935.2,286046995.2,N
1600161955.0,286046993.8,N
1600161955.9,286046993.8,N
1600161975.8,286046994.6,N
1600161995.6,286046994.8,N
1600162015.5,286046994.6,Y
1600162035.3,286046999.2,P
1600162055.1,286046996.6,N
1600162075.9,286046995.4,N
1600162095.7,286046995.2,N
1600162115.5,286046996.0,N
1600162135.4,286046994.0,Y
1600162155.2,286046997.9,P
1600162175.1,286046997.7,N
1600162176.0,286046997.7,P
1600162195.8,286046997.1,Y
1600162215.6,286046998.6,P
1600162235.5,286046999.3,N
1600162255.3,286046998.9,N
1600162275.1,286046996.5,Y
1600162295.9,286046998.8,P
1600162315.7,286046999.2,P
1600162335.6,286046997.2,P
1600162355.4,286046997.1,Y
1600162375.2,286046999.3,P
1600162395.1,286046996.9,P
1600162396.0,286046996.9,P
1600162415.8,286046997.7,N
1600162435.7,286046995.2,Y
1600162455.5,286046996.6,P
1600162475.3,286046997.3,P
1600162495.2,286046998.0,P
1600162515.0,286046995.6,Y
1600162515.9,286046995.6,P
1600162535.8,286046997.8,N
1600162555.6,286046996.9,P
1600162575.4,286046997.2,Y
1600162595.3,286047001.1,P
1600162615.1,286046998.4,N
1600162635.8,286046998.5,N
1600162655.7,286046999.4,N
1600162675.5,286046997.1,N
1600162695.4,286046997.9,N
1600162715.2,286046997.3,N
1600162735.0,286046997.6,N
1600162735.9,286046997.6,N
1600162755.8,286046995.6,Y
1600162775.6,286046997.4,P
1600162795.4,286046995.3,P
1600162815.3,286046994.9,P
1600162835.1,286046996.0,N
1600162855.9,286046996.3,N
1600162875.7,286046993.8,Y
1600162895.5,286046997.7,P
1600162915.4,286046995.2,P
1600162935.2,286046998.0,N
1600162955.1,286046995.6,Y
1600162956.0,286046995.6,P
1600162975.8,286046998.3,N
1600162995.6,286046999.2,N
1600163015.5,286046997.3,N
1600163035.3,286046998.0,N
1600163055.1,286046995.7,Y
1600163075.9,286046996.6,P
1600163095.7,286046997.7,P
1600163115.6,286046997.2,P
1600163135.4,286046997.9,Y
1600163155.2,286046998.7,P
1600163175.1,286046997.1,P
1600163176.0,286046997.1,P
1600163195.8,286046996.8,Y
1600163215.7,286046998.1,P
1600163235.5,286046998.6,P
1600163255.3,286046999.1,N
1600163275.2,286046999.2,N
1600163295.0,286046998.0,Y
1600163295.9,286046998.0,P
1600163315.7,286046996.7,P
1600163335.6,286046996.5,P
1600163355.4,286046996.9,Y
1600163375.3,286047000.8,P
1600163395.1,286046998.4,N
1600163415.8,286046998.6,N
1600163435.7,286046999.3,N
1600163455.5,286046996.5,Y
1600163475.4,286046996.5,P
1600163495.2,286046997.1,N
1600163515.0,286046996.7,P
1600163515.9,286046996.7,Y
1600163535.8,286047000.6,P
1600163555.6,286046998.1,N
1600163575.4,286046998.8,N
1600163595.3,286046998.3,N
1600163615.1,286046996.9,N
1600163635.9,286046997.2,N
1600163655.7,286046997.8,N
1600163675.5,286046995.6,Y
1600163695.4,286046997.7,P
1600163715.2,286046996.8,P
1600163735.1,286046997.1,P
1600163736.0,286046997.1,Y
1600163755.8,286046998.3,P
1600163775.6,286046999.2,N
1600163795.5,286046999.5,N
1600163815.3,286046996.7,Y
1600163835.2,286046998.9,P
1600163855.9,286046996.5,P
1600163875